Location: Poughquag
(41.6090°N, 73.6820°W)
Time: 05:38:09
(UTC-04:00)

ISS - Visible Passes

Search period start: 02 April 2023 00:00
Search period end: 12 April 2023 00:00
Orbit: 413 x 423 km, 51.6° (Epoch: 02 April)

Date Brightness Start Highest point End Pass type
(mag) Time Alt. Az. Time Alt. Az. Time Alt. Az.
02 Apr -2.0 20:48:35 10° WNW 20:51:27 26° SW 20:52:54 19° S visible
03 Apr -2.9 20:00:28 10° WNW 20:03:41 46° SW 20:06:53 10° SSE visible
05 Apr -1.1 20:02:09 10° W 20:04:18 16° SW 20:06:27 10° S visible
